Location: Clegg Observatory
(38.9178°N, 78.6069°W)
Time: 05:53:07
(UTC-04:00)

Daily predictions for brighter satellites

Satellite Brightness Start Highest point End
(mag) Time Altitude Azimuth Time Altitude Azimuth Time Altitude Azimuth
Cosmos 676 Rocket 4.2 00:07:57 66° WNW 00:08:01 66° WNW 00:13:20 10° NNE
Atlas Centaur 2 3.9 00:00:44 10° WSW 00:05:19 32° SW 00:05:19 32° SW
Nadezhda 4 Rocket 3.9 00:18:32 73° SW 00:19:01 78° W 00:25:23 10° N
Cosmos 1943 Rocket 2.2 00:14:37 10° NNW 00:19:48 73° NNE 00:19:48 73° NNE
Lacrosse 4 Rocket 3.0 00:22:27 33° NNW 00:22:27 33° NNW 00:25:17 10° NNE
Cosmos 1953 4.0 00:18:15 10° NNW 00:20:33 31° NW 00:20:33 31° NW
Cosmos 1140 Rocket 3.8 00:30:00 63° N 00:30:00 63° N 00:34:26 10° NNE
Cosmos 2369 Rocket 3.7 00:39:04 10° NW 00:42:56 24° W 00:42:56 24° W
Cosmos 1656 Rocket 4.0 00:37:56 10° NNW 00:43:21 57° NE 00:43:21 57° NE
Cosmos 2208 Rocket 4.4 00:39:37 10° NNW 00:43:49 59° NNW 00:43:49 59° NNW
Terra 4.4 00:47:39 10° W 00:47:39 10° W 00:48:13 10° W
CZ-2C R/B 3.9 00:45:10 10° NNE 00:49:08 31° ENE 00:49:08 31° ENE
CZ-4B R/B 4.1 00:57:18 21° NNW 00:57:18 21° NNW 00:58:39 10° NNW
COSMOS 2406 3.4 00:55:41 64° NW 00:55:41 64° NW 01:01:11 10° NNE
NOSS 3-2 (A) 4.3 00:57:43 39° E 00:57:43 39° E 01:02:33 10° NE
Cosmos 1627 Rocket 4.4 00:56:54 83° NNW 00:56:54 83° NNW 01:02:50 10° N
ATLAS 3B R/B 4.1 00:52:48 14° WSW 00:58:49 38° NW 01:05:44 10° NNE
Cosmos 2195 Rocket 4.4 00:59:36 81° WNW 00:59:36 81° WNW 01:05:42 10° N
Cosmos 2026 Rocket 3.9 00:59:46 82° NNE 00:59:46 82° NNE 01:05:35 10° N
USA 238 DEB 4.3 01:23:30 40° W 01:25:34 52° NW 01:32:27 10° NNE
USA 238 4.3 01:23:37 41° W 01:25:40 52° NW 01:32:33 10° NNE
Meteor 1-24 Rocket 3.9 01:27:05 73° NW 01:27:05 73° NW 01:32:48 10° N
Cosmos 2082 Rocket 3.7 01:29:53 25° E 01:29:53 25° E 01:33:35 10° NE
Cosmos 2221 4.3 01:26:38 10° NNW 01:28:56 28° NW 01:28:56 28° NW
USA 215 3.8 01:24:39 10° ENE 01:29:53 42° ESE 01:29:53 42° ESE
Cosmos 1607 4.3 01:33:14 51° WNW 01:33:57 54° NW 01:40:03 10° NNE
Cosmos 1553 Rocket 4.0 01:35:15 10° N 01:41:26 73° W 01:41:26 73° W
Cosmos 1833 Rocket 4.0 01:47:33 28° E 01:47:33 28° E 01:51:45 10° NE
ISS 0.0 01:47:29 12° NNW 01:47:43 12° NNW 01:48:58 10° N
CZ-4C R/B 2.3 01:48:51 72° NNE 01:48:51 72° NNE 01:54:10 10° NNE
Meteor 1-21 Rocket 4.4 01:48:32 64° ENE 01:48:32 64° ENE 01:53:55 10° NNE
Timation 2 Rocket 4.0 01:57:26 78° S 01:57:56 85° ESE 02:04:49 10° NNE
Cosmos 2344 3.5 01:58:28 61° SSE 01:59:39 69° ESE 02:08:06 10° NE
NOSS 3-2 (C) 3.3 01:59:33 80° W 01:59:48 82° NW 02:06:27 10° NNE
Cosmos 1818 3.8 02:00:07 10° NNW 02:05:33 62° ENE 02:05:51 61° ENE
CENTAUR R/B 3.6 02:10:43 28° ESE 02:10:55 28° ESE 02:16:22 10° NE
Cosmos 2266 Rocket 4.0 02:11:04 70° WSW 02:11:24 71° W 02:17:50 10° N
H-2A R/B 4.0 02:14:43 23° ESE 02:14:43 23° ESE 02:20:18 10° E
Cosmos 1486 Rocket 4.5 02:16:00 52° NW 02:16:00 52° NW 02:20:42 10° N
Meteor 2-20 Rocket 4.3 02:17:53 75° WSW 02:18:09 76° W 02:24:20 10° N
Lacrosse 5 4.4 02:16:17 10° NNW 02:19:57 20° NNE 02:23:37 10° ENE
PSLV R/B 4.2 02:21:14 10° NNE 02:25:11 57° NE 02:25:11 57° NE
Cosmos 2369 3.7 02:20:48 10° NNW 02:26:02 71° WNW 02:26:02 71° WNW
IRAS Rocket 4.4 02:21:54 10° NNE 02:27:19 58° ESE 02:27:34 57° ESE
Cosmos 1656 4.2 02:21:49 10° NNW 02:27:27 57° ENE 02:28:57 44° ESE
CZ-2C R/B 3.6 02:29:35 48° WNW 02:29:35 48° WNW 02:34:18 10° NNW
CZ-2C R/B 3.8 02:25:28 10° N 02:30:19 32° WNW 02:30:39 31° WNW
Cosmos 1867 3.6 02:37:24 68° WNW 02:37:35 68° WNW 02:43:04 10° NNE
IRS-P3 4.3 02:35:28 10° NNE 02:40:44 60° E 02:41:12 57° SE
Cosmos 1151 Rocket 4.0 02:36:35 10° NNW 02:39:29 40° NNW 02:39:29 40° NNW
Cosmos 1437 Rocket 3.9 02:38:41 10° N 02:41:17 40° N 02:41:17 40° N
Aureole 1 Rocket 3.9 02:43:14 10° N 02:47:36 58° ENE 02:49:08 42° SE
ASTEX 1 3.8 02:46:42 10° N 02:51:17 51° WNW 02:51:17 51° WNW
Resurs 1-4 Rocket 4.5 02:49:54 10° ENE 02:52:46 15° E 02:55:38 10° SE
Sich 1 3.5 02:53:35 52° E 02:53:35 52° E 02:57:53 10° NNE
Cosmos 1763 Rocket 4.1 02:50:04 10° NNW 02:54:20 43° WNW 02:54:20 43° WNW
Cosmos 2151 3.8 02:58:18 43° NW 02:58:18 43° NW 03:01:41 10° N
USA 32 4.1 02:52:44 10° NNW 02:57:55 61° W 02:57:55 61° W
Cosmos 1980 Rocket 3.0 02:54:10 10° NNW 02:59:37 49° ENE 03:04:06 15° SE
SL-08 R/B 4.3 03:02:44 56° S 03:04:09 89° WNW 03:10:17 10° N
BREEZE-M DEB (TANK) 3.1 03:08:59 41° E 03:08:59 41° E 03:13:23 10° ENE
Cosmos 1300 3.1 03:04:34 10° N 03:07:48 61° N 03:07:48 61° N
Cosmos 540 Rocket 3.5 03:05:51 10° NNW 03:11:03 77° ENE 03:12:41 44° SSE
Cosmos 2058 3.3 03:12:15 54° NW 03:12:15 54° NW 03:15:56 10° N
Cosmos 2082 Rocket 2.9 03:11:43 37° W 03:12:49 41° WNW 03:18:09 10° N
USA 215 3.8 03:07:35 10° NE 03:13:53 52° NW 03:17:13 28° W
Cosmos 2242 Rocket 3.8 03:10:06 10° N 03:14:31 67° E 03:15:13 56° SE
ERS-2 3.0 03:13:22 10° N 03:16:18 42° NW 03:16:18 42° NW
AQUA 3.7 03:17:09 10° N 03:21:57 80° WNW 03:22:38 64° SW
Cosmos 1697 Rocket 2.6 03:16:26 10° NNW 03:22:05 66° WSW 03:23:25 50° SSW
Meteor 1-27 4.2 03:16:20 10° NNW 03:22:11 76° W 03:23:58 46° S
NPP 3.7 03:18:56 10° N 03:24:17 66° WNW 03:25:30 50° SW
CZ-2D R/B 3.6 03:21:18 10° NE 03:25:50 29° E 03:29:13 15° SSE
SL-16 R/B 3.7 03:20:15 10° SE 03:26:03 42° ENE 03:31:52 10° N
H-2A R/B 4.4 01:59:24 10° WSW 03:28:49 53° SSW 03:35:32 10° ESE
Abrixas 3.8 03:29:48 39° N 03:29:48 39° N 03:32:18 10° NE
SL-14 R/B 3.5 03:30:30 55° WNW 03:30:30 55° WNW 03:34:02 10° N
Cosmos 1833 Rocket 3.5 03:29:15 32° W 03:30:44 38° WNW 03:35:59 10° N
Spot 4 Rocket 4.1 03:29:28 10° NNE 03:34:38 76° ESE 03:36:31 40° S
Cosmos 1455 3.5 03:32:43 10° N 03:36:16 36° ENE 03:38:21 20° SE
CZ-4C R/B 4.4 03:34:00 10° WNW 03:37:45 18° NW 03:41:47 10° N
Cosmos 968 Rocket 3.4 03:38:14 44° S 03:39:54 82° ESE 03:45:03 10° NNE
Cosmos 1538 Rocket 4.1 03:37:26 10° NNW 03:42:39 74° ENE 03:47:27 12° SSE
Cosmos 1703 3.2 03:43:37 63° SW 03:44:04 71° W 03:48:03 10° N
CZ-3 Stage 3 3.6 03:29:37 10° WSW 03:44:37 42° S 03:48:24 10° ESE
Cosmos 1437 4.4 03:45:20 25° NW 03:45:20 25° NW 03:47:35 10° NNW
Cosmos 1633 Rocket 3.6 03:44:54 39° W 03:45:20 40° WNW 03:49:32 10° N
SL-08 R/B 3.8 03:46:26 39° WSW 03:46:50 40° W 03:51:25 10° NNW
Atlas Centaur 2 4.2 03:50:23 17° S 03:50:23 17° S 03:52:24 10° SSE
ATLAS 5 CENTAUR R/B 3.9 03:45:09 12° SSE 03:48:03 19° ESE 03:51:33 10° ENE
Lacrosse 5 rocket 4.2 03:45:01 10° NNW 03:48:27 22° NNE 03:51:58 10° E
ADEOS 3.7 03:45:37 10° N 03:50:47 62° WNW 03:52:43 37° SW
FALCON 9 R/B 3.0 03:53:26 11° ESE 03:53:26 11° ESE 03:53:33 10° ESE
EO 1 Del DPAF 3.4 03:52:36 27° SSE 03:54:36 76° ENE 03:58:31 10° N
SL-16 R/B 3.0 03:50:05 10° NNW 03:55:38 53° ENE 04:01:09 10° SE
Cosmos 332 Rocket 3.9 03:52:27 10° NNW 03:57:08 53° WSW 03:58:48 35° SSW
Cosmos 1726 3.4 03:57:17 10° NNW 03:59:50 25° WNW 03:59:50 25° WNW
Cosmos 1470 Rocket 3.7 03:59:11 40° SW 04:00:33 59° W 04:04:57 10° N
CENTAUR R/B 3.0 03:57:54 27° WSW 04:01:07 49° NW 04:07:47 10° NNE
Meteor 1-4 Rocket 2.5 03:58:27 10° N 04:02:12 86° W 04:03:48 33° S
Cosmos 1777 Rocket 4.0 03:59:39 29° S 04:02:27 81° ESE 04:07:45 10° NNE
Lacrosse 5 1.9 03:58:30 10° NW 04:03:35 84° NE 04:08:38 10° SE
USA 161 3.5 04:05:41 15° NW 04:05:41 15° NW 04:06:15 10° NNW
Nadezhda 1 Rocket 4.4 03:59:07 10° NNW 04:04:51 42° W 04:07:29 28° SW
Meteor 2-10 4.0 04:00:01 10° NNW 04:05:10 67° W 04:08:39 22° S
Cosmos 1933 Rocket 3.8 04:04:17 37° SW 04:05:37 52° W 04:09:55 10° N
Cosmos 1709 Rocket 4.0 04:02:08 25° SSW 04:06:06 77° W 04:12:25 10° N
IRS-1D 3.6 04:01:16 10° NNE 04:06:40 89° WNW 04:09:57 24° SSW
UNK 3.8 04:03:53 11° SSE 04:08:16 77° ENE 04:12:52 10° N
Cosmos 1271 Rocket 2.6 04:05:44 10° NNW 04:09:31 67° W 04:11:02 33° S
Cosmos 2322 Rocket 2.3 04:05:23 10° NNW 04:11:02 76° ENE 04:16:38 10° SSE
ARIANE 5 R/B 2.5 04:07:48 10° N 04:12:54 69° WNW 04:15:46 26° SSW
BREEZE-M DEB (TANK) 4.4 04:10:48 10° NW 04:13:34 18° N 04:15:24 10° NE
Cosmos 773 Rocket 4.0 04:11:39 10° NNW 04:16:49 84° ENE 04:21:57 10° SSE
Cosmos 1626 2.3 04:15:54 35° SW 04:17:12 56° W 04:20:55 10° N
BREEZE-M TANK 3.6 04:13:52 10° WNW 04:17:48 29° NNW 04:20:05 10° NE
CZ-2D R/B 4.2 04:15:32 10° NNE 04:19:37 49° E 04:23:12 12° S
Okean O Rocket 2.7 04:15:36 10° NNE 04:19:49 42° E 04:24:00 10° S
Cosmos 2292 Rocket 2.8 04:23:56 38° SW 04:24:45 53° W 04:27:51 10° N
Resurs 1-4 Rocket 2.2 04:27:45 10° N 04:33:01 65° WNW 04:37:09 17° SSW
Cosmos 2221 Rocket 3.6 04:35:44 10° N 04:40:14 86° W 04:44:45 10° S
MTI 4.2 04:38:18 18° SSW 04:40:27 43° W 04:43:40 10° NNW
Okean 1-7 3.6 04:37:47 10° N 04:42:10 62° E 04:46:29 10° SSE
Cosmos 1980 Rocket 3.4 04:39:02 10° NW 04:43:12 22° W 04:45:46 16° SW
OAO 3 Rocket 3.5 04:40:13 19° WSW 04:43:20 48° S 04:47:54 10° E
Cosmos 2360 Rocket 3.2 04:38:56 10° NNW 04:44:25 51° ENE 04:49:53 10° SE
CZ-4B R/B 3.6 04:39:39 10° NNE 04:45:03 65° ESE 04:50:31 10° S
Cosmos 2219 4.3 04:43:30 10° S 04:48:49 42° ESE 04:54:11 10° NE
Cosmos 2112 Rocket 4.0 04:45:12 10° NNW 04:50:25 89° ENE 04:55:36 10° SSE
Cosmos 371 Rocket 4.4 04:46:39 10° NW 04:50:30 24° W 04:53:38 13° SW
Cosmos 2181 Rocket 4.5 04:46:37 10° NNW 04:52:16 40° W 04:57:57 10° SSW
GPS 2-05 Rocket1 4.2 04:50:55 16° SSW 04:52:51 26° SSE 04:55:50 10° ESE
MOZ.5/SAFIR/RUBIN 5/SL-8 4.3 04:50:16 10° SSE 04:54:52 65° ENE 04:59:32 10° N
Cosmos 1346 3.9 04:54:13 17° SW 04:56:07 34° WNW 04:58:58 10° N
CZ-4B R/B 3.3 04:52:35 10° NNE 04:56:29 62° E 05:00:35 10° S
PAYLOAD B 4.3 04:52:37 10° NNE 04:58:09 87° ESE 05:03:41 10° SSW
CZ-4B DEB 4.4 04:54:34 10° NNE 05:00:04 78° ESE 05:05:35 10° S
ISS -0.6 05:00:08 10° NNW 05:02:47 22° NNE 05:05:26 10° E
SL-08 ROCKET BODY 4.4 04:58:14 10° SSW 05:04:11 75° W 05:10:18 10° N
Cosmos 1869 Rocket 3.9 05:01:14 10° SSW 05:05:25 46° W 05:09:41 10° N
CZ-2D R/B 3.0 05:01:15 10° N 05:05:52 33° WNW 05:10:30 10° SW
UNKNOWN OBJECT B 3.8 05:02:52 10° NNW 05:06:09 29° WNW 05:09:20 11° SW
SL-16 R/B 3.4 05:04:21 10° SSW 05:09:44 30° W 05:15:09 10° NW
SEDSat Delta rocket 4.4 05:04:01 10° WSW 05:10:19 44° S 05:16:10 10° ESE
Cosmos 2298 Rocket 4.1 05:06:13 10° SSW 05:11:32 86° ESE 05:16:54 10° NNE
Cosmos 1455 4.2 05:10:03 10° WNW 05:11:36 12° W 05:13:09 10° WSW
Cosmos 2154 Rocket 4.3 05:06:01 10° S 05:12:18 76° E 05:18:39 10° N
Nadezhda 3 Rocket 4.4 05:07:36 10° N 05:13:46 70° E 05:19:53 10° SSE
Cosmos 304 Rocket 3.9 05:09:43 10° NNW 05:14:25 52° WSW 05:19:05 10° S
Cosmos 1933 4.3 05:12:11 10° NNW 05:15:39 28° W 05:19:06 10° SSW
COSMOS 2428 4.1 05:10:39 10° N 05:16:05 45° ENE 05:21:30 10° SE
Cosmos 1833 4.4 05:11:17 10° SW 05:16:59 62° WNW 05:22:43 10° NNE
Meteor 2-3 Rocket 3.8 05:17:48 10° SSW 05:23:33 77° W 05:29:22 10° N
Coronas F rocket 4.3 05:21:34 10° SE 05:23:34 19° E 05:25:36 10° NE
